Location: Byszew
(52.1813°N, 19.2693°E)
Time: 06:10:41
(UTC+00:00)

SPROUT - Pass Details

Date: 07 July 2022
Orbit: 588 x 598 km, 97.9° (Epoch: 18 August)

Event Time Altitude Azimuth Distance (km) Brightness Sun altitude
Exits shadow 23:49:34 24° 198° (SSW) 1,243 ? -14.1°
Maximum altitude 23:51:46 47° 260° (W) 793 ? -14.0°
Drops below altitude 10° 23:55:49 10° 335° (NNW) 1,933 ? -13.9°
Sets 23:58:04 0° 342° (NNW) 2,842 ? -13.8°
